Theta_e
335 331 317 310 300 298 292 295 299 300 300 304 308 306 306 309 307 299 322 333 338 340 343 344 345 345 344 343 343 341 343 343 343 345 343 340 340 339 337 337 339 337 337 337 337 336 338 337 337
330 328 312 304 295 292 293 298 300 301 304 311 311 310 310 309 318 321 324 335 340 342 342 341 342 344 344 342 342 342 341 342 342 346 343 341 340 338 337 337 338 338 337 336 337 338 337 337 337
327 318 307 300 293 292 295 300 301 305 307 305 306 313 312 311 317 323 327 337 340 340 340 340 342 344 344 343 342 341 338 341 341 344 344 341 339 338 337 337 338 337 336 336 337 336 337 336 335
319 314 308 296 294 296 298 303 305 306 306 309 308 307 314 321 321 324 336 337 338 338 339 339 342 344 343 342 342 340 339 340 338 342 344 342 340 340 339 338 337 337 336 336 336 336 336 335 335
315 308 300 295 294 298 300 304 305 304 305 305 307 306 309 321 325 332 335 337 337 337 337 338 342 343 343 342 341 340 340 340 340 338 339 342 342 341 339 339 338 336 335 335 335 335 334 334 333
308 307 298 294 296 299 301 305 305 304 306 305 310 309 310 319 323 330 333 333 337 337 337 338 336 338 341 341 341 340 340 340 340 339 336 336 340 340 340 338 337 335 335 335 334 333 333 332 332
306 302 297 296 300 298 301 305 304 305 305 305 313 307 310 317 322 324 328 331 335 336 336 336 336 336 334 337 338 339 340 339 339 338 336 334 337 338 339 337 336 336 334 334 334 332 332 331 330
308 304 297 296 298 299 300 302 304 305 306 312 315 306 306 318 324 322 328 330 332 334 336 335 334 334 334 334 332 334 336 337 337 335 332 330 331 333 334 332 335 336 336 334 334 333 332 330 329
309 300 295 298 300 302 301 300 303 305 307 309 314 312 315 322 323 319 319 325 328 333 335 335 334 333 333 332 331 329 331 332 331 330 327 325 324 326 327 328 333 336 335 335 334 332 332 331 328
303 296 299 304 304 302 303 300 302 301 302 304 312 318 320 321 320 317 316 321 326 329 331 335 333 333 331 333 332 330 331 330 328 326 325 323 322 322 324 321 326 332 332 333 334 333 331 326 317
304 297 302 305 306 307 306 303 306 302 299 302 307 316 318 318 319 319 317 317 325 327 330 333 334 333 331 330 329 329 330 328 326 324 323 322 322 320 320 319 320 321 322 326 329 327 323 319 315
300 306 304 304 305 305 303 306 304 304 305 308 308 319 319 317 318 319 319 317 318 322 327 330 332 332 331 331 328 328 328 326 324 324 323 320 319 318 318 318 318 318 319 320 321 321 320 317 316
299 301 304 304 304 303 304 305 304 305 309 308 310 319 318 318 318 320 321 320 319 319 325 328 331 332 332 330 329 328 328 327 326 323 323 322 320 319 318 318 318 318 318 319 318 318 319 318 316
301 301 303 304 304 303 302 302 304 304 306 307 308 311 316 318 319 318 318 319 319 321 320 325 329 332 332 331 329 328 328 327 326 324 324 322 322 320 320 319 319 318 318 320 318 317 316 315 316
303 298 300 301 302 302 303 298 300 304 304 305 305 305 306 311 317 317 320 321 321 322 323 321 324 331 331 331 330 329 328 327 325 325 324 323 322 320 321 321 320 320 320 319 318 316 315 314 314
297 297 291 297 301 302 301 291 299 302 302 302 302 301 302 303 306 308 318 320 323 323 321 321 323 324 330 330 331 330 328 327 326 326 325 324 323 322 321 320 320 321 319 320 317 317 316 314 314
293 287 291 294 301 297 298 292 300 302 300 299 300 301 301 303 304 305 306 312 319 322 323 321 321 322 323 329 330 329 328 327 327 326 325 324 324 323 322 321 321 318 318 318 317 315 316 316 314
287 287 289 291 294 296 294 293 297 300 299 299 300 300 301 302 304 306 306 307 309 314 321 322 320 321 321 324 327 327 326 325 327 326 326 325 324 323 322 322 321 319 318 317 315 315 313 314 314
291 290 290 292 297 293 292 292 295 297 297 298 299 298 300 301 305 304 306 307 308 308 312 318 317 319 320 319 322 324 323 324 325 325 325 324 324 324 323 323 321 319 319 318 316 315 313 312 309
292 288 287 293 296 293 291 290 294 296 296 297 298 299 300 300 301 303 303 305 306 307 308 313 318 319 320 320 320 323 324 324 325 325 324 324 324 324 323 323 322 320 320 319 317 315 310 312 310
291 290 287 289 293 293 289 287 289 293 293 296 297 299 300 299 300 301 301 302 302 304 306 308 317 319 319 321 319 318 318 317 319 322 322 323 324 323 323 323 323 321 320 319 319 316 315 313 308
289 294 293 291 288 282 288 279 285 289 292 293 294 294 294 295 298 300 301 301 301 303 304 307 311 318 318 319 319 319 319 317 320 321 323 323 323 323 323 323 322 322 320 319 319 318 317 315 313
290 295 293 291 287 284 281 281 282 286 287 290 293 294 294 296 296 297 299 301 299 300 300 305 306 311 319 318 320 319 318 320 321 318 318 320 321 322 322 322 323 321 321 319 319 317 316 317 315
296 292 291 292 287 280 283 281 280 284 286 288 291 292 295 298 295 296 297 298 297 297 298 299 301 304 311 317 317 317 318 319 318 316 317 319 320 321 321 322 322 322 321 320 319 318 317 315 315
295 288 276 275 279 277 282 281 285 288 291 290 292 293 294 297 293 295 296 297 298 298 298 298 299 299 300 303 312 317 318 318 318 318 318 319 318 319 320 321 321 321 322 321 320 319 318 317 315
290 289 277 271 274 276 283 279 284 291 293 294 294 293 294 294 294 294 295 297 298 299 299 299 299 299 300 300 300 303 314 320 320 321 321 321 320 321 321 320 321 322 322 322 322 321 320 319 318
287 286 288 280 277 274 279 282 288 292 292 292 292 294 292 292 294 295 297 297 297 296 296 297 298 299 299 299 299 299 301 304 314 319 321 322 322 322 321 320 320 320 321 322 321 322 320 320 319
290 291 283 284 274 271 277 279 282 286 289 292 292 294 290 291 295 296 296 294 294 293 294 295 296 296 297 297 297 297 298 299 301 304 309 318 323 323 322 321 321 320 320 320 321 321 322 320 320
289 288 287 286 280 275 272 277 285 288 290 289 290 293 293 294 295 294 292 292 292 292 292 292 292 293 293 293 293 295 296 297 298 300 302 305 310 319 322 323 322 321 320 320 320 321 321 320 320
292 289 289 282 278 280 279 279 288 288 289 290 290 291 293 294 293 291 291 290 290 290 290 290 290 290 291 291 292 294 296 296 297 298 300 303 305 309 314 321 321 321 320 321 321 321 321 320 319
Wind_Speed
12 11 2 5 6 6 1 1 1 1 2 3 3 5 7 4 3 3 3 6 9 10 8 10 13 15 14 14 13 12 11 9 9 15 17 15 15 15 15 13 11 14 15 15 15 16 13 12 12
11 5 5 3 7 4 3 1 4 2 3 6 4 3 5 2 2 4 5 4 11 8 7 9 13 14 15 13 12 12 13 9 9 17 17 16 15 14 14 14 12 13 15 14 14 14 13 13 13
7 3 4 5 4 4 4 3 5 3 2 2 3 5 1 1 1 7 3 11 8 8 6 6 11 14 14 14 14 12 14 9 9 12 17 15 15 14 14 12 12 12 14 13 13 13 12 12 12
6 6 5 6 3 1 5 6 4 4 1 4 4 4 3 1 4 6 12 12 9 7 7 10 12 14 14 12 13 13 13 12 13 10 13 15 14 12 16 10 12 12 12 12 11 12 10 9 10
5 4 5 4 2 2 1 4 6 4 3 3 4 3 1 5 2 10 11 11 12 8 6 8 12 13 15 15 13 11 11 10 9 12 12 12 13 12 11 12 10 10 12 11 10 10 8 7 8
5 3 5 1 1 2 2 4 3 4 3 3 5 4 3 2 5 6 7 8 8 10 7 7 8 10 12 14 14 15 14 12 12 10 12 11 10 12 13 11 8 11 11 10 9 7 7 6 6
5 4 1 2 2 1 4 6 5 5 5 3 9 4 3 4 6 7 8 6 6 6 6 5 5 7 8 9 9 10 12 13 11 9 12 12 10 9 14 12 12 9 10 10 9 7 5 5 6
5 4 2 2 2 2 2 1 2 4 4 5 6 4 4 5 8 7 5 6 7 6 7 6 5 5 5 6 8 7 8 10 11 10 9 8 8 8 11 11 11 12 9 10 9 9 7 6 5
2 4 3 3 3 4 2 2 1 1 4 2 2 4 3 9 9 7 4 2 4 7 10 7 6 5 5 5 6 7 7 9 10 9 10 6 3 4 7 6 10 10 10 10 10 9 8 7 5
5 4 9 4 4 1 2 1 1 2 2 2 2 3 5 8 7 8 7 9 9 12 12 11 8 8 6 5 5 4 4 3 3 4 5 4 4 3 3 5 10 12 11 11 11 10 7 5 2
4 5 4 3 1 4 1 2 2 5 3 5 5 5 7 5 7 8 7 7 13 10 8 12 9 8 8 6 4 3 3 3 3 5 5 4 3 3 2 1 2 3 5 3 5 4 3 4 3
3 5 3 3 2 2 3 3 3 3 3 3 4 6 7 9 11 12 11 10 8 9 11 10 11 10 9 5 5 5 4 4 4 4 5 3 2 4 3 2 4 3 3 4 3 2 3 5 5
3 4 5 3 2 3 2 6 5 5 7 2 1 6 9 8 10 9 11 8 8 12 11 11 11 11 10 9 6 6 7 6 6 5 5 4 4 4 3 4 3 3 3 4 4 4 3 4 5
3 2 0 1 4 3 4 4 3 4 4 3 5 6 8 9 12 7 5 11 11 13 14 12 13 12 11 11 10 8 7 8 7 7 8 9 6 5 5 4 4 3 3 3 4 4 4 4 4
3 3 2 2 3 4 5 6 9 6 1 6 9 7 8 10 9 11 13 13 14 14 14 13 16 13 13 14 12 10 9 9 8 8 10 12 10 8 7 6 5 5 4 5 3 3 3 4 4
2 3 3 2 4 5 7 6 6 7 7 10 10 9 8 8 11 10 12 13 12 13 12 13 12 14 14 13 11 9 8 8 9 9 8 12 11 10 8 7 7 6 4 5 4 5 5 5 5
3 3 7 6 6 2 6 2 5 6 7 9 9 9 7 9 9 10 10 12 12 14 14 13 13 15 16 15 11 11 10 9 9 8 8 11 12 12 11 9 8 7 6 6 6 5 6 6 6
6 3 3 5 2 2 6 8 9 11 5 10 9 9 9 10 13 9 8 8 9 9 11 12 11 14 13 11 8 5 7 7 8 8 9 10 9 11 11 9 9 9 8 7 6 8 5 6 6
4 4 6 3 5 3 8 9 10 11 8 9 9 9 12 13 13 8 9 8 7 7 8 10 10 14 9 7 8 8 10 9 8 9 12 10 11 12 12 10 8 9 10 11 10 8 9 7 4
3 2 3 6 4 3 7 11 12 12 9 10 10 11 13 10 9 10 9 8 8 8 8 7 11 10 11 9 9 8 7 8 8 7 9 12 13 13 13 13 11 11 10 10 10 10 5 7 7
5 8 3 5 7 4 7 10 9 8 4 6 9 13 12 12 13 12 9 10 7 8 9 8 10 10 11 13 3 2 2 0 3 7 9 13 13 13 14 15 13 11 11 11 12 12 14 10 5
12 6 4 3 4 4 3 10 5 5 8 6 12 10 10 10 11 11 8 8 6 9 6 7 8 9 9 10 7 10 10 10 10 10 8 8 11 13 13 15 14 13 10 12 11 10 12 11 11
8 6 8 4 4 5 1 4 7 3 6 10 12 11 9 8 10 10 6 6 3 5 5 5 3 4 4 5 11 9 11 9 9 4 6 9 9 13 13 13 15 13 10 12 13 11 12 11 11
2 3 3 2 1 8 8 5 5 4 6 5 6 8 6 7 8 5 7 8 6 5 6 7 7 6 4 3 6 8 10 11 6 5 6 7 6 7 12 13 13 14 12 13 12 13 14 14 13
8 5 1 2 5 7 1 6 12 7 11 8 10 9 6 4 4 6 8 8 7 7 7 5 7 6 7 6 3 6 8 8 10 9 8 9 6 7 11 14 13 11 14 14 13 13 14 14 14
12 8 6 8 5 4 2 10 8 8 10 9 9 7 6 5 3 4 7 7 7 8 8 8 8 7 7 7 7 6 6 6 7 9 9 8 9 9 11 11 13 15 14 14 14 12 12 14 14
7 15 7 4 1 2 6 8 9 10 13 9 5 4 5 7 4 6 7 7 7 7 7 7 7 7 7 7 6 7 6 6 5 8 8 8 11 9 9 12 13 14 14 15 14 12 14 15 15
7 7 5 4 4 5 5 6 9 8 8 8 7 5 5 5 6 5 6 6 6 6 5 7 6 6 6 7 6 6 6 6 6 6 8 9 10 10 10 11 13 14 14 15 16 14 14 15 12
8 8 6 5 6 5 2 7 9 9 9 9 8 8 9 7 7 5 5 5 5 5 7 7 8 7 7 7 7 8 7 8 7 6 7 8 9 10 11 13 13 14 15 15 15 16 15 15 15
18 15 13 7 7 6 1 9 3 5 0 5 7 4 8 7 6 5 4 5 6 7 7 7 7 7 8 8 8 8 8 9 8 8 8 7 9 9 11 11 12 13 14 15 16 16 14 15 15
Wind_Direction
321 323 71 43 56 67 94 198 268 33 48 344 17 129 136 121 148 217 325 162 133 144 147 136 135 138 137 138 132 133 133 130 130 133 121 119 121 117 115 109 103 114 112 113 113 107 97 94 124
316 332 42 80 82 73 282 256 159 185 135 119 86 58 48 94 123 113 111 177 146 143 140 142 143 143 142 142 139 145 144 143 143 135 131 129 127 130 120 124 121 118 117 121 119 110 97 91 109
327 37 69 82 106 148 168 195 198 160 125 146 72 53 48 155 5 161 172 145 141 140 135 145 146 148 149 149 148 150 152 156 142 130 136 134 133 137 129 129 129 127 124 126 125 118 104 95 105
359 5 32 75 71 233 177 175 203 132 74 78 123 66 333 319 170 202 147 140 142 146 144 158 159 157 154 157 160 156 159 163 162 144 142 139 139 147 135 143 133 131 130 129 132 125 115 104 104
28 49 46 77 345 325 43 176 167 138 155 119 138 185 261 332 21 135 144 147 155 154 154 166 165 165 163 164 170 160 160 162 157 164 158 143 147 146 140 143 148 145 137 136 139 135 124 106 97
30 76 42 96 297 311 306 186 186 145 145 141 72 126 225 334 121 152 141 154 162 158 159 166 173 171 173 174 168 169 171 169 172 180 171 170 158 160 152 147 143 153 149 148 149 146 134 119 94
104 74 193 293 293 235 210 148 172 148 135 195 157 129 293 303 155 147 145 141 146 152 154 171 177 181 179 181 182 182 175 176 170 172 182 179 174 183 162 161 162 162 168 162 163 163 159 145 117
102 94 111 294 295 292 319 57 114 136 194 134 151 181 235 212 146 124 128 145 149 160 171 172 183 187 187 186 191 192 187 178 171 172 186 201 186 194 164 165 170 171 175 176 179 181 183 175 149
108 70 186 222 198 274 322 123 341 103 117 78 57 145 293 136 125 117 116 145 168 176 180 177 183 188 189 195 200 198 189 186 182 181 185 203 219 208 183 170 176 177 177 180 193 199 198 190 187
101 151 211 208 180 249 342 70 173 105 99 25 54 38 86 117 147 158 174 181 194 197 198 194 189 188 181 195 198 199 194 198 197 189 192 194 214 231 217 201 186 188 182 188 197 208 213 211 219
158 197 209 182 345 8 340 125 291 156 204 194 201 168 148 148 173 184 197 196 203 200 199 201 195 192 189 194 177 182 175 177 191 200 200 208 202 230 254 279 246 219 182 183 205 209 205 218 232
158 208 187 179 54 17 326 317 307 195 184 102 30 171 164 173 191 203 206 206 196 203 206 198 196 195 196 190 185 183 188 184 185 195 194 182 216 217 226 224 229 228 196 204 225 225 223 234 237
217 198 188 197 176 237 292 256 252 253 241 182 18 159 195 200 214 221 219 219 202 213 214 205 196 200 195 197 189 191 194 197 191 178 189 185 199 216 204 221 222 228 205 203 212 226 239 242 244
289 232 173 216 199 227 192 242 127 275 284 276 161 206 216 219 220 230 214 226 214 219 216 201 209 202 195 202 200 200 199 195 189 190 199 198 200 205 205 217 221 226 216 217 216 216 228 243 242
298 329 336 214 210 242 163 272 216 205 211 274 285 256 231 235 234 223 225 228 222 225 224 205 207 201 201 205 205 203 203 197 201 202 198 201 197 192 204 207 215 217 206 209 209 240 246 256 256
133 49 359 251 200 257 140 248 245 193 200 245 254 256 267 246 237 240 231 222 223 230 219 213 211 204 207 209 209 210 206 204 207 205 201 204 204 197 194 200 209 205 201 222 211 212 234 232 238
350 225 224 307 216 264 183 232 255 293 209 253 268 266 259 279 262 246 241 231 223 215 218 215 205 208 207 213 210 209 207 208 211 208 207 206 204 198 202 208 207 183 199 200 212 224 213 234 237
211 222 256 229 303 180 272 272 277 280 247 243 252 263 272 263 258 261 236 249 238 223 220 216 204 214 211 214 212 207 217 209 215 215 215 206 205 203 206 214 207 189 201 203 196 215 210 224 226
155 183 231 298 265 262 241 261 267 272 284 266 248 245 257 258 266 246 254 242 236 235 216 211 193 209 191 193 199 207 214 216 219 217 215 201 204 206 206 213 206 199 208 210 205 205 208 228 183
212 228 263 289 276 217 278 267 263 258 249 242 244 250 249 254 267 270 259 245 226 236 219 217 216 209 205 201 208 208 209 221 223 217 220 215 211 207 207 211 210 205 214 214 205 203 207 232 173
225 232 225 238 321 283 303 271 237 262 235 251 258 250 259 254 264 267 259 252 249 238 230 215 213 208 206 212 164 139 63 222 200 215 215 218 214 213 210 211 213 210 210 221 216 206 210 223 190
247 184 194 247 331 261 11 291 250 243 263 251 255 255 250 269 259 250 250 260 259 255 246 230 219 199 200 190 190 205 215 220 227 222 221 218 210 217 216 219 216 217 211 221 222 215 216 216 224
232 172 211 229 248 304 194 292 276 317 278 264 258 263 261 276 267 259 256 260 19 43 27 5 299 268 258 208 205 204 217 224 237 202 209 214 209 211 214 216 222 221 220 223 225 220 212 217 226
207 225 159 93 100 257 206 175 260 226 220 262 264 275 250 310 360 105 89 91 73 47 45 38 48 39 17 230 216 221 227 234 238 228 221 230 224 215 218 219 219 224 223 224 225 226 218 215 220
197 152 299 283 217 235 354 207 252 274 257 233 272 286 304 49 20 97 87 71 57 48 42 46 44 40 20 21 319 249 245 241 237 234 227 230 220 214 218 216 221 221 226 228 229 228 227 223 223
198 178 169 200 209 242 139 235 251 244 277 262 262 268 265 194 154 86 77 75 60 47 31 28 29 24 15 13 349 335 296 262 253 250 252 248 238 234 229 218 222 225 224 226 229 230 229 230 229
191 209 177 96 23 52 228 292 291 263 279 277 265 276 228 154 111 85 73 60 50 38 29 23 19 18 16 7 357 345 335 327 299 284 263 252 251 246 229 219 219 222 226 227 228 231 230 228 230
186 150 174 181 210 236 256 265 236 298 280 262 273 206 189 128 103 90 68 52 40 33 14 24 24 15 356 353 352 340 323 319 305 298 287 280 269 251 240 227 224 223 223 225 228 232 232 231 230
185 202 203 180 172 202 266 257 216 233 274 273 256 215 161 154 136 112 77 49 36 29 24 14 11 3 3 356 340 334 331 325 319 304 295 290 290 283 259 246 235 227 224 222 228 231 232 231 232
223 220 201 200 212 241 263 256 274 198 317 88 37 105 130 131 137 114 86 56 32 21 16 14 1 356 357 343 339 337 333 335 330 323 315 305 295 287 279 265 243 231 227 226 229 233 231 231 235